QPF
0.08 0.07 0.11 0.09 0.14 0.11 0.11 0.16 0.14 0.07 0.02 0.00 0.00 0.00 0.00 0.00 0.00 0.00 0.00 0.00 0.00 0.00 0.00 0.00 0.00 0.00 0.00 0.00 0.00 0.00 0.00 0.00 0.00 0.00 0.00 0.00 0.00 0.00 0.00 0.00 0.00 0.00 0.00
0.09 0.18 0.13 0.08 0.11 0.10 0.17 0.29 0.21 0.12 0.03 0.00 0.00 0.00 0.00 0.00 0.00 0.00 0.00 0.00 0.00 0.00 0.00 0.00 0.00 0.00 0.00 0.00 0.00 0.00 0.00 0.00 0.00 0.00 0.00 0.00 0.00 0.00 0.00 0.00 0.00 0.00 0.00
0.14 0.32 0.24 0.13 0.13 0.20 0.33 0.34 0.21 0.18 0.03 0.03 0.03 0.02 0.01 0.00 0.00 0.00 0.00 0.00 0.00 0.00 0.00 0.00 0.00 0.00 0.00 0.00 0.00 0.00 0.00 0.00 0.00 0.00 0.00 0.00 0.00 0.00 0.00 0.00 0.00 0.00 0.00
0.18 0.18 0.18 0.19 0.14 0.23 0.36 0.35 0.31 0.27 0.21 0.13 0.06 0.03 0.02 0.00 0.00 0.00 0.00 0.00 0.00 0.00 0.00 0.00 0.00 0.00 0.00 0.00 0.00 0.00 0.00 0.00 0.00 0.00 0.00 0.00 0.00 0.00 0.00 0.00 0.00 0.00 0.00
0.25 0.21 0.16 0.19 0.23 0.26 0.28 0.27 0.27 0.29 0.20 0.10 0.06 0.03 0.01 0.00 0.00 0.00 0.00 0.00 0.00 0.00 0.00 0.00 0.00 0.00 0.00 0.00 0.00 0.00 0.00 0.00 0.00 0.00 0.00 0.00 0.00 0.00 0.00 0.00 0.00 0.00 0.00
0.31 0.52 0.33 0.32 0.27 0.23 0.24 0.41 0.43 0.19 0.11 0.07 0.05 0.02 0.00 0.00 0.00 0.00 0.00 0.00 0.00 0.00 0.00 0.00 0.00 0.00 0.00 0.00 0.00 0.00 0.00 0.00 0.00 0.00 0.00 0.00 0.00 0.00 0.00 0.00 0.00 0.00 0.00
0.30 0.78 1.21 0.67 0.26 0.50 0.48 0.45 0.44 0.22 0.07 0.04 0.02 0.01 0.00 0.00 0.00 0.00 0.00 0.00 0.00 0.00 0.00 0.00 0.00 0.00 0.00 0.00 0.00 0.00 0.00 0.00 0.00 0.00 0.00 0.00 0.00 0.00 0.00 0.00 0.00 0.00 0.00
0.43 0.70 1.89 1.86 0.66 0.76 0.91 0.71 0.39 0.17 0.05 0.04 0.01 0.00 0.00 0.00 0.00 0.00 0.00 0.00 0.00 0.00 0.00 0.00 0.00 0.00 0.00 0.00 0.00 0.00 0.00 0.00 0.00 0.00 0.00 0.00 0.00 0.00 0.00 0.00 0.00 0.00 0.00
0.62 0.70 1.36 1.62 0.97 0.67 0.76 0.65 0.30 0.11 0.04 0.02 0.01 0.00 0.00 0.00 0.00 0.00 0.00 0.00 0.00 0.00 0.00 0.00 0.00 0.00 0.00 0.00 0.00 0.00 0.00 0.00 0.00 0.00 0.00 0.00 0.00 0.00 0.00 0.00 0.00 0.00 0.00
0.63 0.69 0.77 1.00 1.21 0.56 0.49 0.31 0.11 0.06 0.04 0.01 0.00 0.00 0.00 0.00 0.00 0.00 0.00 0.00 0.00 0.00 0.00 0.00 0.00 0.00 0.00 0.00 0.00 0.00 0.00 0.00 0.00 0.00 0.00 0.00 0.00 0.00 0.00 0.00 0.00 0.00 0.00
0.75 0.66 0.40 0.51 0.88 0.49 0.32 0.13 0.05 0.02 0.01 0.00 0.00 0.00 0.00 0.00 0.00 0.00 0.00 0.00 0.00 0.00 0.00 0.00 0.00 0.00 0.00 0.00 0.00 0.00 0.00 0.00 0.00 0.00 0.00 0.00 0.00 0.00 0.00 0.00 0.00 0.00 0.00
0.72 0.39 0.22 0.22 0.31 0.32 0.16 0.05 0.02 0.01 0.00 0.00 0.00 0.00 0.00 0.00 0.00 0.00 0.00 0.00 0.00 0.00 0.00 0.00 0.00 0.00 0.00 0.00 0.00 0.00 0.00 0.00 0.00 0.00 0.00 0.00 0.00 0.00 0.00 0.00 0.00 0.00 0.00
0.40 0.12 0.10 0.14 0.11 0.09 0.05 0.02 0.00 0.00 0.00 0.00 0.00 0.00 0.00 0.00 0.00 0.00 0.00 0.00 0.00 0.00 0.00 0.00 0.00 0.00 0.00 0.00 0.00 0.00 0.00 0.00 0.00 0.00 0.00 0.00 0.00 0.00 0.00 0.00 0.00 0.00 0.00
0.18 0.08 0.05 0.07 0.06 0.02 0.01 0.00 0.00 0.00 0.00 0.00 0.00 0.00 0.00 0.00 0.00 0.00 0.00 0.00 0.00 0.00 0.00 0.00 0.00 0.00 0.00 0.00 0.00 0.00 0.00 0.00 0.00 0.00 0.00 0.00 0.00 0.00 0.00 0.00 0.00 0.00 0.00
0.09 0.08 0.05 0.02 0.01 0.00 0.00 0.00 0.00 0.00 0.00 0.00 0.00 0.00 0.00 0.00 0.00 0.00 0.00 0.00 0.00 0.00 0.00 0.00 0.00 0.00 0.00 0.00 0.00 0.00 0.00 0.00 0.00 0.00 0.00 0.00 0.00 0.00 0.00 0.00 0.00 0.00 0.00
0.07 0.04 0.02 0.00 0.00 0.00 0.00 0.00 0.00 0.00 0.00 0.00 0.00 0.00 0.00 0.00 0.00 0.00 0.00 0.00 0.00 0.00 0.00 0.00 0.00 0.00 0.00 0.00 0.00 0.00 0.00 0.00 0.00 0.00 0.00 0.00 0.00 0.00 0.00 0.00 0.00 0.00 0.00
0.05 0.02 0.01 0.00 0.00 0.00 0.00 0.00 0.00 0.00 0.00 0.00 0.00 0.00 0.00 0.00 0.00 0.00 0.00 0.00 0.00 0.00 0.00 0.00 0.00 0.00 0.00 0.00 0.00 0.00 0.00 0.00 0.00 0.00 0.00 0.00 0.00 0.00 0.00 0.00 0.00 0.00 0.00
0.03 0.02 0.00 0.00 0.00 0.00 0.00 0.00 0.00 0.00 0.00 0.00 0.00 0.00 0.00 0.00 0.00 0.00 0.00 0.00 0.00 0.00 0.00 0.00 0.00 0.00 0.00 0.00 0.00 0.00 0.00 0.00 0.00 0.00 0.00 0.00 0.00 0.00 0.00 0.00 0.00 0.00 0.00
0.02 0.00 0.00 0.00 0.00 0.00 0.00 0.00 0.00 0.00 0.00 0.00 0.00 0.00 0.00 0.00 0.00 0.00 0.00 0.00 0.00 0.00 0.00 0.00 0.00 0.00 0.00 0.00 0.00 0.00 0.00 0.00 0.00 0.00 0.00 0.00 0.00 0.00 0.00 0.00 0.00 0.00 0.00
0.00 0.00 0.00 0.01 0.00 0.00 0.00 0.00 0.00 0.00 0.00 0.00 0.00 0.00 0.00 0.00 0.00 0.00 0.00 0.00 0.00 0.00 0.00 0.00 0.00 0.00 0.00 0.00 0.00 0.00 0.00 0.00 0.00 0.00 0.00 0.00 0.00 0.00 0.00 0.00 0.00 0.00 0.00
0.00 0.01 0.00 0.00 0.00 0.00 0.00 0.00 0.00 0.00 0.00 0.00 0.00 0.00 0.00 0.00 0.00 0.00 0.00 0.00 0.00 0.00 0.00 0.00 0.00 0.00 0.00 0.00 0.00 0.00 0.00 0.00 0.00 0.00 0.00 0.00 0.00 0.00 0.00 0.00 0.00 0.00 0.00
0.00 0.00 0.00 0.00 0.00 0.00 0.00 0.00 0.00 0.00 0.00 0.00 0.00 0.00 0.00 0.00 0.00 0.00 0.00 0.00 0.00 0.00 0.00 0.00 0.00 0.00 0.00 0.00 0.00 0.00 0.00 0.00 0.00 0.00 0.00 0.00 0.00 0.00 0.00 0.00 0.00 0.00 0.00
0.00 0.00 0.00 0.00 0.00 0.00 0.00 0.00 0.00 0.00 0.00 0.00 0.00 0.00 0.00 0.00 0.00 0.00 0.00 0.00 0.00 0.00 0.00 0.00 0.00 0.00 0.00 0.00 0.00 0.00 0.00 0.00 0.00 0.00 0.00 0.00 0.00 0.00 0.00 0.00 0.00 0.00 0.00
0.00 0.00 0.00 0.00 0.00 0.00 0.00 0.00 0.00 0.00 0.00 0.00 0.00 0.00 0.00 0.00 0.00 0.00 0.00 0.00 0.00 0.00 0.00 0.00 0.00 0.00 0.00 0.00 0.00 0.00 0.00 0.00 0.00 0.00 0.00 0.00 0.00 0.00 0.00 0.00 0.00 0.00 0.00
0.00 0.00 0.00 0.00 0.00 0.00 0.00 0.00 0.00 0.00 0.00 0.00 0.00 0.00 0.00 0.00 0.00 0.00 0.00 0.00 0.00 0.00 0.00 0.00 0.00 0.00 0.00 0.00 0.00 0.00 0.00 0.00 0.00 0.00 0.00 0.00 0.00 0.00 0.00 0.00 0.00 0.00 0.00
0.00 0.00 0.00 0.00 0.00 0.00 0.00 0.00 0.00 0.00 0.00 0.00 0.00 0.00 0.00 0.00 0.00 0.00 0.00 0.00 0.00 0.00 0.00 0.00 0.00 0.00 0.00 0.00 0.00 0.00 0.00 0.00 0.00 0.00 0.00 0.00 0.00 0.00 0.00 0.00 0.00 0.00 0.00
MSLP
996.08 997.34 998.37 999.67 1000.42 1000.99 1002.24 1003.14 1004.02 1005.13 1006.68 1007.86 1008.78 1010.40 1011.73 1012.84 1013.38 1014.06 1015.02 1015.69 1016.47 1017.13 1017.60 1018.10 1018.56 1019.00 1019.25 1019.60 1019.47 1019.70 1019.65 1019.57 1020.23 1020.07 1019.48 1018.60 1018.11 1017.69 1017.05 1016.49 1015.65 1014.80 1014.08
995.27 996.54 997.75 998.87 999.86 1000.91 1002.01 1003.18 1002.09 1004.58 1006.48 1007.60 1008.79 1010.56 1011.94 1013.01 1013.59 1014.29 1015.15 1016.20 1016.83 1017.57 1018.24 1018.72 1019.09 1019.45 1019.74 1020.10 1020.33 1020.14 1019.94 1019.77 1020.19 1020.57 1019.88 1019.05 1018.36 1017.84 1017.33 1016.57 1015.53 1014.64 1014.12
994.95 995.77 997.07 998.21 999.36 1000.58 1001.88 1002.73 1003.83 1005.29 1007.19 1008.34 1009.18 1010.25 1012.43 1013.30 1013.91 1014.90 1015.86 1016.73 1017.45 1018.32 1018.99 1019.15 1019.62 1019.87 1020.37 1020.55 1020.43 1020.36 1020.19 1020.03 1020.33 1020.51 1020.23 1019.32 1018.48 1017.94 1017.27 1016.45 1015.70 1014.81 1013.82
994.58 994.83 996.63 997.83 998.87 1000.60 1002.15 1002.59 1003.52 1005.87 1006.89 1008.33 1009.82 1010.71 1012.90 1013.94 1014.52 1015.31 1016.24 1017.18 1018.09 1018.96 1019.49 1019.84 1019.78 1020.18 1020.52 1020.86 1020.37 1020.33 1020.36 1020.37 1020.48 1020.55 1020.34 1019.74 1018.97 1018.09 1017.57 1016.81 1015.74 1014.74 1013.91
994.00 994.67 995.72 997.17 999.07 1000.42 1002.08 1002.83 1003.43 1005.79 1006.98 1008.60 1009.89 1012.00 1013.94 1014.56 1015.09 1015.52 1016.66 1017.67 1018.60 1019.19 1020.16 1020.14 1020.20 1020.72 1020.60 1020.76 1020.47 1020.31 1020.55 1020.77 1020.65 1020.64 1020.60 1020.03 1019.21 1018.42 1017.91 1017.30 1016.42 1015.34 1013.80
992.80 993.94 995.24 997.32 999.13 1000.69 1002.10 1003.42 1004.02 1006.24 1007.19 1008.76 1011.20 1013.41 1014.74 1015.28 1015.67 1016.19 1016.69 1018.05 1018.74 1019.35 1020.42 1020.60 1020.91 1021.01 1021.14 1020.94 1020.47 1020.18 1020.38 1020.76 1020.84 1020.95 1020.75 1020.32 1019.75 1019.23 1018.27 1017.55 1016.60 1015.53 1014.41
992.11 993.68 995.72 997.43 998.97 1001.15 1002.39 1003.48 1005.38 1006.84 1008.01 1010.55 1011.86 1014.53 1015.92 1016.58 1016.57 1016.97 1017.69 1018.55 1018.85 1019.96 1020.55 1020.89 1021.29 1021.60 1021.95 1021.64 1020.72 1020.49 1020.47 1020.58 1020.57 1020.70 1020.63 1020.31 1020.02 1019.35 1018.73 1017.83 1017.10 1016.32 1015.34
994.07 994.98 996.24 995.69 998.22 1000.86 1003.33 1004.67 1005.95 1008.01 1009.93 1011.89 1013.37 1015.00 1016.65 1017.67 1017.32 1017.72 1018.42 1019.00 1019.52 1020.54 1020.93 1021.34 1021.80 1022.06 1022.38 1021.75 1021.34 1021.13 1021.08 1021.10 1020.74 1020.75 1020.38 1020.23 1019.79 1019.28 1018.60 1017.92 1017.14 1016.16 1015.10
995.55 997.01 996.71 997.32 997.16 1000.61 1004.58 1006.51 1006.97 1010.46 1011.90 1012.57 1014.15 1016.00 1017.23 1017.94 1017.74 1018.15 1018.77 1019.63 1020.05 1020.84 1021.22 1021.61 1022.10 1022.20 1022.47 1022.14 1022.06 1021.85 1021.82 1021.87 1020.96 1020.63 1020.32 1020.15 1019.60 1018.91 1018.28 1017.71 1016.93 1016.20 1015.01
995.96 997.86 1000.69 998.87 1000.17 1001.81 1003.76 1009.97 1007.90 1011.71 1012.43 1013.93 1015.24 1017.25 1017.50 1018.17 1018.31 1018.78 1019.51 1019.75 1020.60 1021.42 1021.62 1021.92 1021.95 1022.59 1022.48 1022.56 1022.26 1022.62 1022.78 1022.49 1021.71 1021.17 1021.01 1020.55 1019.93 1019.16 1018.15 1017.72 1017.29 1016.79 1015.74
998.26 1000.20 999.93 1000.39 1003.34 1004.82 1006.48 1008.06 1010.41 1012.59 1014.20 1014.53 1016.59 1017.80 1018.28 1018.53 1019.00 1019.34 1019.76 1019.93 1020.93 1021.60 1022.16 1022.20 1022.40 1022.77 1022.41 1022.62 1022.77 1023.15 1023.12 1022.80 1022.35 1022.14 1021.90 1021.31 1020.53 1019.50 1018.61 1017.92 1017.37 1017.11 1016.29
999.96 1001.89 1002.39 1003.04 1005.11 1005.60 1006.96 1010.30 1011.58 1012.76 1014.59 1015.96 1017.13 1018.62 1018.66 1018.83 1019.72 1020.09 1020.30 1020.69 1021.18 1021.66 1022.42 1022.38 1022.93 1022.34 1023.00 1023.26 1023.63 1023.61 1023.07 1023.05 1022.74 1022.78 1022.29 1021.81 1021.15 1020.18 1019.28 1018.39 1017.64 1016.95 1016.25
1004.18 1005.04 1004.54 1005.67 1006.86 1008.46 1009.65 1011.26 1012.93 1014.66 1014.88 1016.38 1017.72 1017.96 1018.59 1020.04 1020.91 1020.78 1021.14 1021.39 1021.39 1021.56 1022.38 1022.28 1022.56 1023.50 1023.94 1024.30 1024.29 1023.57 1023.53 1023.45 1023.70 1023.31 1022.83 1022.30 1021.54 1020.73 1019.74 1018.62 1017.63 1016.93 1016.24
1005.14 1006.36 1006.22 1007.24 1008.60 1010.13 1011.38 1012.66 1013.03 1014.23 1015.79 1017.27 1017.92 1018.35 1020.07 1020.74 1021.28 1021.48 1021.80 1021.94 1021.74 1022.33 1022.24 1022.45 1023.61 1024.36 1024.69 1025.01 1024.50 1024.37 1024.46 1024.49 1024.33 1023.71 1023.23 1022.51 1021.74 1020.81 1019.98 1019.09 1018.08 1017.13 1016.33
1005.75 1006.95 1007.64 1008.57 1009.81 1011.24 1012.88 1013.82 1014.68 1015.95 1016.55 1017.21 1018.63 1019.47 1019.80 1021.41 1021.84 1021.69 1022.65 1022.22 1022.59 1022.92 1023.28 1023.95 1025.05 1025.39 1025.63 1025.24 1025.19 1025.63 1025.67 1025.13 1024.29 1023.84 1023.49 1022.69 1021.98 1021.36 1020.59 1019.55 1018.77 1017.90 1017.02
1006.84 1008.14 1009.14 1010.21 1011.20 1012.33 1013.71 1015.16 1016.22 1017.18 1018.25 1019.02 1019.36 1019.58 1020.52 1021.17 1022.01 1022.67 1022.38 1022.63 1023.12 1023.53 1024.54 1025.74 1026.07 1026.09 1025.69 1025.76 1026.58 1026.94 1026.25 1025.36 1024.79 1024.52 1024.14 1023.32 1022.73 1022.16 1021.40 1020.23 1019.49 1018.81 1017.85
1008.14 1009.48 1010.65 1011.57 1012.71 1013.95 1015.07 1016.07 1017.57 1019.41 1019.72 1019.69 1020.10 1020.80 1021.74 1022.14 1022.33 1022.31 1022.89 1023.56 1024.27 1024.45 1025.72 1026.32 1026.18 1026.09 1026.45 1027.05 1027.55 1027.15 1026.42 1025.78 1025.40 1025.09 1024.70 1024.19 1023.53 1022.91 1022.11 1021.18 1020.31 1019.52 1018.49
1009.58 1010.69 1011.53 1012.73 1013.68 1014.70 1015.99 1017.11 1017.99 1019.08 1020.26 1021.17 1021.69 1022.05 1022.12 1022.21 1022.65 1023.50 1023.76 1024.09 1025.35 1025.89 1026.20 1026.20 1026.39 1026.97 1027.45 1027.78 1027.54 1026.95 1026.54 1026.30 1025.96 1025.63 1025.34 1025.03 1024.35 1023.70 1022.86 1022.07 1021.24 1020.48 1019.35
1011.83 1012.97 1013.90 1014.63 1015.54 1016.45 1017.61 1018.73 1019.37 1019.39 1020.44 1021.86 1022.44 1022.65 1023.10 1023.53 1023.96 1024.14 1024.50 1025.30 1025.95 1026.48 1026.54 1026.83 1027.33 1027.69 1027.84 1027.75 1027.35 1027.21 1026.92 1026.94 1026.51 1026.26 1026.12 1025.72 1025.08 1024.37 1023.65 1022.90 1022.07 1021.21 1020.11
1013.63 1014.47 1015.02 1015.70 1016.54 1017.47 1018.32 1019.17 1020.17 1020.94 1021.98 1022.88 1023.28 1023.82 1024.12 1024.25 1024.65 1025.13 1025.63 1025.98 1026.64 1026.99 1027.17 1027.60 1027.93 1028.13 1028.12 1027.80 1027.51 1027.57 1027.20 1027.21 1027.05 1026.88 1026.73 1026.35 1025.73 1025.00 1024.35 1023.58 1022.66 1021.80 1020.84
1014.90 1015.70 1016.30 1017.10 1017.87 1018.74 1019.47 1020.40 1021.18 1022.16 1022.80 1023.12 1023.64 1023.84 1023.94 1024.88 1025.50 1025.70 1026.48 1027.13 1027.15 1027.42 1027.62 1027.75 1027.76 1027.87 1028.18 1027.89 1027.89 1027.96 1027.79 1027.79 1027.65 1027.45 1027.13 1026.77 1026.25 1025.61 1024.89 1024.08 1023.22 1022.34 1021.58
1016.00 1016.68 1017.18 1017.85 1018.88 1019.85 1020.70 1021.22 1021.60 1022.32 1022.64 1023.24 1024.13 1024.68 1024.72 1025.17 1026.21 1027.11 1027.36 1027.27 1027.27 1027.43 1027.55 1027.72 1028.09 1028.53 1028.03 1028.04 1028.39 1028.56 1028.47 1028.37 1028.10 1027.85 1027.51 1027.07 1026.54 1025.95 1025.28 1024.50 1023.65 1022.86 1022.07
1016.45 1016.76 1017.71 1018.52 1019.52 1020.16 1020.89 1021.43 1022.07 1022.76 1023.28 1023.97 1024.41 1025.20 1026.03 1026.79 1026.97 1026.92 1026.97 1027.18 1027.37 1027.51 1027.34 1027.60 1028.36 1028.51 1028.60 1028.62 1028.78 1029.06 1028.97 1028.80 1028.65 1028.27 1027.87 1027.35 1026.81 1026.26 1025.63 1025.00 1024.27 1023.51 1022.70
1017.06 1017.65 1018.38 1019.21 1020.08 1021.00 1021.74 1022.31 1022.97 1023.66 1024.28 1024.92 1025.56 1026.23 1026.37 1026.40 1026.66 1026.77 1026.92 1026.98 1027.14 1027.17 1027.56 1028.11 1028.43 1028.72 1028.93 1029.08 1029.23 1029.24 1029.07 1028.84 1028.54 1028.27 1027.94 1027.59 1027.08 1026.49 1025.94 1025.34 1024.75 1024.07 1023.34
1018.10 1018.76 1019.49 1020.23 1021.10 1021.93 1022.50 1023.18 1023.67 1024.13 1024.68 1025.18 1025.72 1026.01 1026.19 1026.50 1026.71 1026.76 1026.84 1026.86 1027.03 1027.58 1028.01 1028.39 1028.89 1029.06 1029.17 1029.54 1029.55 1029.40 1029.16 1028.84 1028.55 1028.19 1027.92 1027.59 1027.17 1026.75 1026.28 1025.77 1025.22 1024.54 1023.80
1018.56 1019.29 1020.20 1021.00 1021.70 1022.29 1022.94 1023.56 1024.07 1024.39 1024.81 1025.23 1025.56 1025.84 1026.12 1026.28 1026.64 1026.75 1026.73 1027.12 1027.55 1028.01 1028.62 1029.07 1029.41 1029.72 1029.71 1029.72 1029.77 1029.67 1029.43 1029.11 1028.76 1028.36 1028.09 1027.78 1027.46 1027.07 1026.58 1026.12 1025.57 1025.00 1024.32
Thickness
5708 5709 5714 5718 5725 5733 5732 5735 5734 5722 5717 5711 5711 5702 5695 5693 5691 5685 5676 5671 5663 5656 5651 5644 5638 5630 5624 5617 5614 5607 5602 5595 5582 5577 5575 5575 5572 5567 5563 5559 5557 5554 5546
5700 5704 5707 5716 5721 5722 5724 5725 5722 5712 5703 5703 5700 5693 5688 5684 5683 5677 5671 5661 5655 5647 5639 5632 5627 5620 5613 5607 5600 5597 5593 5586 5576 5566 5563 5563 5563 5559 5554 5550 5548 5543 5535
5691 5701 5704 5709 5715 5714 5714 5718 5717 5709 5699 5690 5690 5688 5672 5674 5673 5666 5658 5651 5644 5635 5626 5623 5616 5610 5603 5597 5593 5588 5583 5578 5569 5560 5555 5555 5554 5551 5546 5539 5536 5531 5526
5688 5699 5699 5705 5709 5704 5702 5712 5711 5694 5692 5683 5677 5673 5661 5662 5662 5657 5649 5640 5632 5623 5617 5611 5609 5602 5594 5587 5586 5580 5574 5568 5560 5552 5546 5543 5542 5540 5535 5532 5526 5522 5519
5688 5690 5702 5706 5700 5699 5696 5702 5707 5688 5682 5672 5666 5652 5648 5650 5650 5648 5638 5629 5621 5616 5605 5603 5600 5592 5589 5582 5577 5572 5565 5556 5549 5542 5537 5533 5531 5528 5524 5518 5514 5512 5511
5691 5694 5698 5692 5689 5689 5691 5690 5691 5671 5672 5663 5646 5637 5635 5638 5637 5636 5633 5620 5615 5609 5597 5593 5587 5582 5576 5573 5572 5568 5559 5549 5541 5533 5527 5523 5518 5512 5509 5506 5500 5502 5502
5694 5690 5682 5680 5683 5679 5683 5686 5673 5654 5644 5638 5637 5623 5619 5620 5623 5624 5618 5610 5607 5596 5589 5583 5578 5571 5565 5560 5562 5558 5552 5546 5539 5528 5520 5514 5505 5501 5495 5491 5487 5484 5482
5671 5674 5675 5675 5683 5678 5671 5658 5643 5636 5624 5620 5619 5614 5609 5605 5613 5612 5607 5601 5594 5585 5579 5573 5566 5560 5553 5553 5550 5544 5539 5531 5525 5518 5512 5502 5495 5490 5484 5480 5478 5477 5476
5655 5651 5663 5670 5675 5676 5651 5627 5632 5605 5603 5613 5608 5602 5599 5600 5606 5604 5599 5590 5585 5576 5571 5564 5556 5552 5546 5544 5537 5533 5525 5516 5513 5506 5499 5489 5484 5480 5477 5475 5474 5472 5475
5659 5647 5614 5644 5657 5651 5647 5600 5607 5598 5602 5600 5597 5589 5594 5595 5596 5594 5588 5584 5574 5566 5561 5554 5552 5543 5540 5534 5528 5517 5506 5500 5496 5491 5484 5477 5473 5471 5470 5467 5464 5460 5462
5629 5626 5633 5639 5619 5598 5603 5603 5598 5593 5592 5593 5584 5583 5586 5588 5586 5586 5580 5577 5567 5560 5551 5547 5542 5534 5534 5526 5516 5502 5494 5489 5484 5476 5468 5466 5464 5463 5463 5461 5457 5452 5453
5614 5601 5609 5616 5607 5602 5602 5589 5589 5592 5588 5582 5580 5576 5581 5582 5577 5574 5572 5566 5560 5554 5544 5539 5531 5532 5520 5510 5497 5489 5486 5479 5473 5465 5462 5459 5456 5455 5455 5455 5453 5450 5447
5579 5576 5590 5588 5589 5587 5586 5583 5582 5580 5586 5580 5578 5581 5576 5570 5564 5564 5559 5556 5552 5546 5536 5534 5529 5513 5502 5490 5481 5481 5475 5469 5460 5457 5454 5451 5449 5448 5448 5450 5451 5448 5445
5572 5568 5583 5583 5580 5579 5580 5579 5587 5584 5579 5575 5575 5572 5562 5561 5555 5552 5550 5546 5544 5536 5533 5525 5510 5496 5485 5474 5473 5469 5462 5455 5450 5449 5446 5445 5444 5444 5445 5447 5449 5450 5449
5578 5573 5576 5580 5581 5576 5571 5571 5572 5570 5572 5573 5566 5561 5561 5548 5547 5551 5538 5540 5533 5525 5515 5502 5486 5478 5468 5467 5462 5453 5445 5444 5446 5442 5440 5440 5441 5440 5440 5442 5442 5443 5444
5577 5574 5575 5575 5574 5574 5571 5566 5563 5560 5556 5554 5554 5556 5550 5549 5543 5535 5535 5530 5519 5508 5494 5479 5470 5464 5462 5456 5445 5437 5438 5440 5438 5435 5432 5433 5433 5433 5432 5435 5434 5434 5436
5575 5571 5568 5568 5566 5563 5561 5558 5550 5539 5541 5546 5545 5545 5540 5536 5532 5532 5523 5511 5500 5493 5480 5469 5464 5459 5450 5440 5432 5432 5433 5432 5430 5427 5425 5424 5424 5424 5425 5428 5428 5428 5431
5568 5566 5568 5564 5563 5560 5554 5550 5549 5544 5536 5535 5533 5531 5530 5531 5524 5512 5505 5500 5487 5477 5471 5466 5456 5444 5435 5429 5429 5429 5428 5425 5423 5420 5418 5416 5416 5416 5418 5419 5420 5420 5424
5556 5554 5552 5550 5547 5544 5539 5534 5534 5541 5535 5526 5523 5521 5516 5511 5505 5501 5497 5487 5478 5467 5461 5451 5440 5433 5429 5425 5426 5425 5423 5418 5417 5414 5410 5409 5409 5409 5410 5411 5412 5414 5418
5545 5542 5543 5542 5541 5539 5536 5532 5527 5524 5519 5513 5509 5505 5503 5504 5499 5492 5483 5475 5464 5454 5446 5438 5433 5428 5421 5422 5424 5420 5419 5414 5410 5407 5403 5402 5402 5402 5402 5404 5406 5407 5412
5537 5534 5535 5532 5529 5526 5525 5520 5517 5514 5511 5510 5507 5505 5504 5494 5487 5483 5468 5455 5451 5445 5440 5437 5433 5426 5421 5423 5418 5414 5411 5407 5403 5401 5399 5396 5395 5395 5395 5396 5398 5400 5404
5529 5528 5527 5524 5520 5518 5516 5515 5516 5513 5512 5507 5500 5492 5491 5487 5470 5457 5451 5449 5448 5444 5438 5431 5425 5419 5423 5420 5412 5406 5403 5400 5398 5395 5393 5391 5390 5389 5389 5391 5393 5394 5398
5529 5531 5526 5525 5521 5520 5519 5515 5512 5508 5504 5498 5492 5481 5470 5459 5456 5454 5454 5451 5445 5439 5437 5431 5422 5419 5414 5410 5405 5399 5397 5394 5391 5389 5388 5387 5385 5384 5384 5384 5385 5387 5389
5522 5523 5522 5520 5517 5513 5510 5506 5501 5493 5486 5478 5472 5465 5462 5461 5458 5455 5451 5447 5441 5438 5431 5424 5418 5412 5407 5402 5397 5393 5391 5388 5387 5385 5384 5382 5380 5379 5378 5378 5378 5379 5380
5518 5518 5517 5514 5510 5504 5499 5493 5489 5485 5479 5474 5469 5466 5462 5458 5454 5451 5447 5442 5437 5431 5425 5418 5409 5404 5400 5392 5389 5386 5384 5382 5381 5380 5378 5376 5374 5373 5372 5371 5371 5371 5374
5518 5517 5512 5507 5503 5499 5493 5488 5485 5481 5477 5472 5468 5464 5460 5456 5451 5446 5441 5435 5429 5422 5414 5407 5400 5393 5390 5387 5382 5379 5376 5375 5374 5373 5371 5369 5367 5366 5365 5364 5364 5363 5365